• In Deutschland
  • Länderverzeichnis
  • Für 7 Tage
  • Wassertemperatur
  • Satellitenkarten
  • Wetterkarte
  • Widgets
  • user-avatar
    Anmelden

    Stündliche Wetter Döbeln

    Heute, 21 September, Freitag

    Zeit Temperatur Niederschläge Wind Luftdruck Luftfeuchtigkeit
    00:00 +20°C° 0 mm 3 m/S 740 mmHg 70%
    01:00 +20°C° 0 mm 3 m/S 739 mmHg 72%
    02:00 +20°C° 0 mm 3 m/S 739 mmHg 72%
    03:00 +20°C° 0 mm 3 m/S 739 mmHg 72%
    04:00 +19°C° 0 mm 4 m/S 739 mmHg 72%
    05:00 +19°C° 0 mm 4 m/S 738 mmHg 70%
    06:00 +20°C° 0 mm 4 m/S 738 mmHg 69%
    07:00 +20°C° 0 mm 4 m/S 738 mmHg 71%
    08:00 +21°C° 0 mm 4 m/S 737 mmHg 64%
    09:00 +23°C° 0 mm 5 m/S 737 mmHg 58%
    10:00 +26°C° 0 mm 6 m/S 737 mmHg 51%
    11:00 +27°C° 0 mm 6 m/S 736 mmHg 47%
    12:00 +28°C° 0 mm 7 m/S 736 mmHg 44%
    13:00 +30°C° 0 mm 5 m/S 735 mmHg 40%
    14:00 +29°C° 0 mm 5 m/S 735 mmHg 44%
    15:00 +28°C° 0 mm 5 m/S 735 mmHg 48%
    16:00 +27°C° 0 mm 5 m/S 735 mmHg 53%
    17:00 +23°C° 0.8 mm 5 m/S 735 mmHg 62%
    18:00 +20°C° 0.8 mm 6 m/S 736 mmHg 71%
    19:00 +16°C° 0.8 mm 6 m/S 737 mmHg 80%
    20:00 +15°C° 0.3 mm 5 m/S 738 mmHg 79%
    21:00 +14°C° 0.3 mm 5 m/S 739 mmHg 77%
    22:00 +13°C° 0.3 mm 5 m/S 740 mmHg 76%
    23:00 +12°C° 0 mm 5 m/S 740 mmHg 74%

    Morgen, 22 September, Samstag

    Zeit Temperatur Niederschläge Wind Luftdruck Luftfeuchtigkeit
    00:00 +12°C° 0 mm 5 m/S 741 mmHg 72%
    01:00 +10°C° 0 mm 5 m/S 741 mmHg 70%
    02:00 +10°C° 0 mm 5 m/S 742 mmHg 71%
    03:00 +9°C° 0 mm 5 m/S 742 mmHg 71%
    04:00 +9°C° 0 mm 5 m/S 742 mmHg 72%
    05:00 +9°C° 0 mm 5 m/S 742 mmHg 72%
    06:00 +9°C° 0 mm 6 m/S 743 mmHg 72%
    07:00 +9°C° 0 mm 6 m/S 743 mmHg 72%
    08:00 +10°C° 0 mm 6 m/S 743 mmHg 67%
    09:00 +13°C° 0 mm 6 m/S 744 mmHg 62%
    10:00 +14°C° 0 mm 7 m/S 744 mmHg 58%
    11:00 +15°C° 0 mm 7 m/S 744 mmHg 55%
    12:00 +16°C° 0 mm 6 m/S 744 mmHg 51%
    13:00 +16°C° 0 mm 6 m/S 744 mmHg 48%
    14:00 +16°C° 0 mm 6 m/S 743 mmHg 48%
    15:00 +16°C° 0 mm 5 m/S 743 mmHg 48%
    16:00 +16°C° 0 mm 5 m/S 743 mmHg 47%
    17:00 +15°C° 0 mm 4 m/S 743 mmHg 51%
    18:00 +14°C° 0 mm 4 m/S 743 mmHg 55%
    19:00 +12°C° 0 mm 3 m/S 743 mmHg 58%
    20:00 +12°C° 0.1 mm 3 m/S 743 mmHg 62%
    21:00 +12°C° 0.1 mm 3 m/S 743 mmHg 65%
    22:00 +12°C° 0.1 mm 4 m/S 743 mmHg 68%
    23:00 +12°C° 0.2 mm 4 m/S 743 mmHg 73%

    übermorgen, 23 September, Sonntag

    Zeit Temperatur Niederschläge Wind Luftdruck Luftfeuchtigkeit
    00:00 +11°C° 0.2 mm 3 m/S 743 mmHg 78%
    01:00 +11°C° 0.2 mm 3 m/S 743 mmHg 83%
    02:00 +11°C° 0.1 mm 3 m/S 743 mmHg 84%
    03:00 +10°C° 0.1 mm 3 m/S 742 mmHg 86%
    04:00 +10°C° 0.1 mm 3 m/S 742 mmHg 88%
    05:00 +10°C° 0.2 mm 3 m/S 742 mmHg 88%
    06:00 +10°C° 0.2 mm 3 m/S 742 mmHg 87%
    07:00 +10°C° 0.2 mm 3 m/S 742 mmHg 87%
    08:00 +12°C° 0.1 mm 2 m/S 742 mmHg 85%
    09:00 +12°C° 0.1 mm 2 m/S 741 mmHg 84%
    10:00 +12°C° 0.1 mm 2 m/S 741 mmHg 82%
    11:00 +13°C° 0 mm 2 m/S 741 mmHg 80%
    12:00 +14°C° 0 mm 2 m/S 740 mmHg 77%
    13:00 +14°C° 0 mm 2 m/S 739 mmHg 75%
    14:00 +13°C° 0.5 mm 3 m/S 738 mmHg 79%
    15:00 +13°C° 0.5 mm 3 m/S 737 mmHg 84%
    16:00 +12°C° 0.5 mm 3 m/S 736 mmHg 89%
    17:00 +13°C° 3.4 mm 4 m/S 734 mmHg 90%
    18:00 +14°C° 3.4 mm 5 m/S 733 mmHg 91%
    19:00 +15°C° 3.4 mm 6 m/S 731 mmHg 92%
    20:00 +13°C° 4.6 mm 6 m/S 731 mmHg 92%
    21:00 +11°C° 4.6 mm 6 m/S 731 mmHg 92%
    22:00 +9°C° 4.6 mm 5 m/S 731 mmHg 92%
    23:00 +9°C° 1 mm 6 m/S 733 mmHg 91%

    24 September, Montag

    Zeit Temperatur Niederschläge Wind Luftdruck Luftfeuchtigkeit
    00:00 +8°C° 1 mm 7 m/S 735 mmHg 90%
    01:00 +6°C° 1 mm 8 m/S 737 mmHg 90%
    02:00 +6°C° 0.4 mm 7 m/S 739 mmHg 89%
    03:00 +6°C° 0.4 mm 7 m/S 740 mmHg 88%
    04:00 +6°C° 0.4 mm 7 m/S 742 mmHg 87%
    05:00 +6°C° 0 mm 7 m/S 743 mmHg 86%
    06:00 +5°C° 0 mm 7 m/S 744 mmHg 85%
    07:00 +5°C° 0 mm 7 m/S 745 mmHg 84%
    08:00 +6°C° 0 mm 7 m/S 746 mmHg 77%
    09:00 +7°C° 0 mm 8 m/S 747 mmHg 70%
    10:00 +10°C° 0 mm 9 m/S 747 mmHg 63%
    11:00 +10°C° 0.1 mm 9 m/S 748 mmHg 60%
    12:00 +11°C° 0.1 mm 9 m/S 748 mmHg 57%
    13:00 +11°C° 0.1 mm 9 m/S 748 mmHg 53%
    14:00 +11°C° 0.2 mm 9 m/S 748 mmHg 55%
    15:00 +11°C° 0.2 mm 8 m/S 748 mmHg 57%
    16:00 +10°C° 0.2 mm 8 m/S 749 mmHg 58%
    17:00 +9°C° 0.1 mm 7 m/S 749 mmHg 62%
    18:00 +8°C° 0.1 mm 5 m/S 750 mmHg 67%
    19:00 +7°C° 0.1 mm 4 m/S 750 mmHg 71%
    20:00 +7°C° 0 mm 4 m/S 751 mmHg 72%
    21:00 +6°C° 0 mm 4 m/S 752 mmHg 73%
    22:00 +6°C° 0 mm 4 m/S 752 mmHg 74%
    23:00 +5°C° 0 mm 4 m/S 752 mmHg 76%

    25 September, Dienstag

    Zeit Temperatur Niederschläge Wind Luftdruck Luftfeuchtigkeit
    00:00 +5°C° 0 mm 4 m/S 753 mmHg 77%
    01:00 +4°C° 0 mm 4 m/S 753 mmHg 79%
    02:00 +4°C° 0 mm 4 m/S 753 mmHg 81%
    03:00 +4°C° 0 mm 3 m/S 754 mmHg 82%
    04:00 +3°C° 0 mm 3 m/S 754 mmHg 84%
    05:00 +3°C° 0 mm 3 m/S 754 mmHg 84%
    06:00 +3°C° 0 mm 3 m/S 754 mmHg 84%
    07:00 +3°C° 0 mm 3 m/S 755 mmHg 85%
    08:00 +5°C° 0 mm 3 m/S 755 mmHg 76%
    09:00 +8°C° 0 mm 3 m/S 755 mmHg 68%
    10:00 +10°C° 0 mm 3 m/S 755 mmHg 59%
    11:00 +11°C° 0 mm 3 m/S 755 mmHg 55%
    12:00 +12°C° 0 mm 4 m/S 755 mmHg 51%
    13:00 +13°C° 0 mm 4 m/S 754 mmHg 48%
    14:00 +13°C° 0 mm 4 m/S 754 mmHg 49%
    15:00 +13°C° 0 mm 4 m/S 753 mmHg 50%
    16:00 +13°C° 0 mm 5 m/S 753 mmHg 51%
    17:00 +11°C° 0 mm 4 m/S 753 mmHg 56%
    18:00 +10°C° 0 mm 4 m/S 752 mmHg 61%
    19:00 +8°C° 0 mm 4 m/S 752 mmHg 66%
    20:00 +7°C° 0 mm 4 m/S 752 mmHg 68%
    21:00 +7°C° 0 mm 4 m/S 752 mmHg 69%
    22:00 +7°C° 0 mm 4 m/S 752 mmHg 71%
    23:00 +7°C° 0 mm 4 m/S 752 mmHg 74%

    26 September, Mittwoch

    Zeit Temperatur Niederschläge Wind Luftdruck Luftfeuchtigkeit
    00:00 +6°C° 0 mm 4 m/S 752 mmHg 77%
    01:00 +6°C° 0 mm 4 m/S 752 mmHg 80%
    02:00 +6°C° 0 mm 4 m/S 752 mmHg 82%
    03:00 +6°C° 0 mm 4 m/S 752 mmHg 85%
    04:00 +5°C° 0 mm 4 m/S 752 mmHg 88%
    05:00 +7°C° 0 mm 3 m/S 753 mmHg 88%
    06:00 +7°C° 0 mm 3 m/S 753 mmHg 88%
    07:00 +7°C° 0 mm 3 m/S 753 mmHg 88%
    08:00 +9°C° 0 mm 3 m/S 753 mmHg 83%
    09:00 +10°C° 0 mm 3 m/S 753 mmHg 78%
    10:00 +12°C° 0 mm 3 m/S 754 mmHg 73%
    11:00 +13°C° 0 mm 3 m/S 753 mmHg 69%
    12:00 +14°C° 0 mm 3 m/S 753 mmHg 65%
    13:00 +16°C° 0 mm 3 m/S 753 mmHg 61%
    14:00 +16°C° 0 mm 2 m/S 753 mmHg 60%
    15:00 +16°C° 0 mm 2 m/S 752 mmHg 59%
    16:00 +16°C° 0 mm 2 m/S 752 mmHg 59%
    17:00 +15°C° 0 mm 2 m/S 752 mmHg 64%
    18:00 +13°C° 0 mm 2 m/S 752 mmHg 70%
    19:00 +12°C° 0 mm 1 m/S 751 mmHg 75%
    20:00 +10°C° 0 mm 2 m/S 751 mmHg 76%
    21:00 +10°C° 0 mm 2 m/S 751 mmHg 77%
    22:00 +9°C° 0 mm 2 m/S 751 mmHg 77%
    23:00 +9°C° 0 mm 2 m/S 751 mmHg 77%
    Mehr zeigen